Palmdale, CA

9:05 AM PST on February 12, 2016 (GMT -0800)
Palmdale Af Plant 42

Weather History for KPMD - June, 2012

Change the Weather History Date:

Tuesday, June 19, 2012

  Actual Average Record
Temperature  
Mean Temperature 80 °F 76 °F  
Max Temperature 93 °F 92 °F 109 °F (1961)
Min Temperature 67 °F 60 °F 42 °F (1995)
Degree Days  
Heating Degree Days 0 0  
Month to date heating degree days 5 6  
Since 1 June heating degree days 5 6  
Since 1 July heating degree days 2824 2924  
Cooling Degree Days 15 11  
Month to date cooling degree days 214 172  
Year to date cooling degree days 461 342  
Since 1 June cooling degree days 214 172  
Growing Degree Days 28 (Base 50)    
Moisture  
Dew Point 38 °F    
Average Humidity 27    
Maximum Humidity 42    
Minimum Humidity 11    
Precipitation  
Precipitation 0.00 in 0.00 in 0.02 in (1967)
Month to date precipitation 0.00 0.08  
Year to date precipitation 1.79 5.31  
Since 1 July precipitation 3.72  
Snow  
Snow 0.00 in - 0.00 in (1973)
Month to date snowfall 0.0  
Since 1 June snowfall 0.0  
Since 1 July snowfall 0.0  
Snow Depth 0.00 in    
Sea Level Pressure  
Sea Level Pressure 29.76 in    
Wind  
Wind Speed 15 mph (SW)    
Max Wind Speed 25 mph    
Max Gust Speed 30 mph    
Visibility 10 miles    
Events      
T = Trace of Precipitation, MM = Missing Value Source: NWS Daily Summary

Daily Weather History Graph

Daily Weather History Graph

Search for Another Location

Airport or City:

Trip Planner

Search our weather history database for the weather conditions in past years. The results will help you decide how hot, cold, wet, or windy it might be!

Date:

Astronomy

Jun. 19, 2012 Rise Set
Actual Time 5:39 AM PDT 8:08 PM PDT
Civil Twilight 5:09 AM PDT 8:37 PM PDT
Nautical Twilight 4:33 AM PDT 9:14 PM PDT
Astronomical Twilight 3:53 AM PDT 9:54 PM PDT
Moon 5:46 AM PDT (6/19) 8:18 PM PDT (6/19)
Length of Visible Light 15h 27m
Length of Day
14h 28m
New Moon, 0% of the Moon is Illuminated
Jun 19
New Moon
Jun 26
First Quarter
Jul 3
Full
Jul 10
Last Quarter
Jul 18
New

Hourly Weather History & Observations

Time (PDT) Temp. Dew Point Humidity Pressure Visibility Wind Dir Wind Speed Gust Speed Precip Events Conditions
12:53 AM 73.0 °F 37.9 °F 28% 29.79 in 10.0 mi SW 9.2 mph - N/A   Clear
1:53 AM 73.0 °F 39.0 °F 29% 29.77 in 10.0 mi SW 15.0 mph - N/A   Clear
2:53 AM 73.0 °F 39.0 °F 29% 29.77 in 10.0 mi SW 13.8 mph - N/A   Clear
3:53 AM 66.9 °F 43.0 °F 42% 29.78 in 10.0 mi South 12.7 mph - N/A   Clear
4:53 AM 68.0 °F 42.1 °F 39% 29.78 in 10.0 mi SSW 11.5 mph - N/A   Clear
5:53 AM 71.1 °F 37.9 °F 30% 29.78 in 10.0 mi SSW 11.5 mph - N/A   Clear
6:53 AM 72.0 °F 41.0 °F 33% 29.78 in 10.0 mi SSE 8.1 mph - N/A   Clear
7:53 AM 78.1 °F 39.0 °F 25% 29.78 in 10.0 mi WSW 11.5 mph - N/A   Clear
8:53 AM 82.9 °F 34.0 °F 17% 29.78 in 10.0 mi WSW 17.3 mph - N/A   Clear
9:53 AM 87.1 °F 28.0 °F 12% 29.76 in 10.0 mi WSW 17.3 mph 25.3 mph N/A   Clear
10:53 AM 89.1 °F 28.0 °F 11% 29.76 in 10.0 mi WSW 13.8 mph 24.2 mph N/A   Clear
11:53 AM 91.0 °F 30.9 °F 12% 29.78 in 10.0 mi West 19.6 mph 25.3 mph N/A   Clear
12:53 PM 91.0 °F 34.0 °F 13% 29.77 in 10.0 mi WSW 15.0 mph 23.0 mph N/A   Clear
1:53 PM 91.9 °F 37.9 °F 15% 29.75 in 10.0 mi WSW 17.3 mph 28.8 mph N/A   Clear
2:53 PM 91.9 °F 39.9 °F 16% 29.75 in 10.0 mi WSW 17.3 mph 25.3 mph N/A   Clear
3:53 PM 91.0 °F 43.0 °F 19% 29.74 in 10.0 mi SW 19.6 mph - N/A   Clear
4:53 PM 91.0 °F 42.1 °F 18% 29.73 in 10.0 mi SW 18.4 mph 23.0 mph N/A   Clear
5:53 PM 88.0 °F 43.0 °F 21% 29.73 in 10.0 mi WSW 18.4 mph - N/A   Clear
6:53 PM 86.0 °F 39.9 °F 20% 29.72 in 10.0 mi WSW 18.4 mph - N/A   Clear
7:53 PM 82.0 °F 41.0 °F 23% 29.73 in 10.0 mi West 19.6 mph - N/A   Clear
8:53 PM 79.0 °F 39.9 °F 25% 29.74 in 10.0 mi WSW 15.0 mph - N/A   Clear
9:53 PM 77.0 °F 35.1 °F 22% 29.75 in 10.0 mi WSW 11.5 mph - N/A   Clear
10:53 PM 77.0 °F 30.9 °F 19% 29.75 in 10.0 mi WSW 12.7 mph - N/A   Clear
11:53 PM 73.9 °F 36.0 °F 25% 29.74 in 10.0 mi SW 12.7 mph - N/A   Clear